Flag for U.S.A. Weather past 2 weeks in Tulsa, Oklahoma, U.S.A.

Now
31 °F

Partly sunny.


Feels Like: 26 °F
Forecast: 28 / 51 °F
Wind: 5 mph from North

Location: Tulsa International Airport

Current Time: Jan 30, 2015 at 9:53:42 AM

Latest Report: Jan 30, 2015 at 8:53 AM


Visibility: 10 mi

Pressure: 30.58 "Hg

Humidity: 89%

Dew point: 28 °F

Location of TulsaLocation

Historic Weather in Tulsa — Graph

°F

Tulsa temperature yesterday

Maximum temperature yesterday: 63 °F (at 12:53 AM)
Minimum temperature yesterday: 32 °F (at 11:53 PM)
Average temperature yesterday: 48 °F

Past Weeks' High & Low Weather Summary

 TemperatureHumidityPressure
High79 °F (Jan 28, 2:53 PM)97% (Jan 20, 10:53 PM)30.56 "Hg (Jan 20, 10:53 PM)
Low23 °F (Jan 23, 5:53 AM)13% (Jan 18, 3:53 PM)29.78 "Hg (Jan 25, 1:53 AM)
Average48 °F54%30.11 "Hg
* Reported Jan 15 7:53 AM — Jan 30 7:53 AM, Tulsa, Weather by CustomWeather, © 2014

Note: Actual official high and low records may vary slightly from our data, if they occured in-between our weather recording intervals... More about our weather records

Advertising

Tulsa weather history for previous 24 hours

 ConditionsComfort  
Time TempWeatherWind HumidityBarometerVisibility
7:53 AM
Jan 30
28 °FBroken clouds.5 mph89%30.56 "Hg10 mi
6:53 AM29 °FOvercast.6 mph89%30.55 "Hg10 mi
5:53 AM29 °FOvercast.7 mph89%30.53 "Hg10 mi
4:53 AM29 °FHigh level clouds.6 mph89%30.53 "Hg10 mi
3:53 AM29 °FPassing clouds.6 mph89%30.53 "Hg10 mi
2:53 AM29 °FPassing clouds.7 mph89%30.54 "Hg10 mi
1:53 AM32 °FPassing clouds.5 mph82%30.54 "Hg10 mi
12:53 AM33 °FPassing clouds.6 mph78%30.54 "Hg10 mi
11:53 PM
Jan 29
32 °FPassing clouds.5 mph82%30.54 "Hg10 mi
10:53 PM34 °FPassing clouds.7 mph79%30.54 "Hg10 mi
9:53 PM35 °FPartly cloudy.6 mph75%30.53 "Hg10 mi
8:53 PM41 °FPassing clouds.5 mph62%30.51 "Hg10 mi
7:53 PM41 °FClear.6 mph65%30.49 "Hg10 mi
6:53 PM42 °FPassing clouds.5 mph60%30.48 "Hg10 mi
5:53 PM46 °FPassing clouds.10 mph54%30.45 "Hg10 mi
4:53 PM50 °FScattered clouds.20 mph46%30.42 "Hg10 mi
3:53 PM52 °FScattered clouds.20 mph43%30.40 "Hg10 mi
2:53 PM52 °FScattered clouds.20 mph43%30.38 "Hg10 mi
1:53 PM51 °FScattered clouds.23 mph46%30.37 "Hg10 mi
12:53 PM50 °FBroken clouds.23 mph48%30.37 "Hg10 mi
11:53 AM49 °FPartly sunny.24 mph50%30.38 "Hg10 mi
10:53 AM47 °FMostly cloudy.25 mph56%30.38 "Hg10 mi
9:53 AM47 °FOvercast.18 mph61%30.34 "Hg10 mi
Weather by CustomWeather, © 2014

See weather overviewHow to use our weather pages